Regional Weather Roundup
Issued by NWS Little Rock, AR

Home | Current Version | Previous Version | Graphics & Text | Print | Product List | Glossary On
Versions: 1 2 3 4 5 6 7 8 9 10 11 12 13 14 15 16 17 18 19 20 21 22 23 24 25 26 27 28 29 30 31 32 33 34 35 36 37 38 39 40 41 42 43 44 45 46 47 48 49 50
000
ASUS44 KLZK 291605
RWRLZK

WEATHER ROUNDUP FOR ARKANSAS
NATIONAL WEATHER SERVICE LITTLE ROCK AR
1100 AM CDT TUE JUL 29 2014

NOTE: "FAIR" INDICATES FEW OR NO CLOUDS BELOW 12,000 FEET WITH NO
SIGNIFICANT WEATHER AND/OR OBSTRUCTIONS TO VISIBILITY.

ARZ001-003-010-029-291700-
NORTHWEST ARKANSAS

CITY           SKY/WX    TMP DP  RH WIND       PRES   REMARKS
FAYETTEVILLE   SUNNY     77  58  51 NE5       30.20S
FORT SMITH     SUNNY     79  63  57 S5        30.17R
HARRISON       SUNNY     74  56  53 SE5       30.21S
BENTONVILLE    SUNNY     75  57  53 CALM      30.22S
ROGERS         SUNNY     76  58  53 VRB5      30.21F
SILOAM SPGS    SUNNY     77  57  50 CALM      30.21F
HIGHFILL       SUNNY     76  59  55 SE7       30.20S
SPRINGDALE     MOSUNNY   75  61  60 CALM      30.23R
$$

ARZ004-005-016-291700-
NORTH CENTRAL ARKANSAS

CITY           SKY/WX    TMP DP  RH WIND       PRES   REMARKS
BATESVILLE     SUNNY     75  55  50 CALM      30.17F
FLIPPIN        SUNNY     73  54  49 CALM      30.20S
MTN HOME       SUNNY     73  57  57 E5        30.19R
$$

ARZ040-041-291700-
WEST CENTRAL ARKANSAS

CITY           SKY/WX    TMP DP  RH WIND       PRES   REMARKS
MENA           SUNNY     79  64  61 CALM      30.19S
MOUNT IDA      SUNNY     78  65  63 CALM      30.16S
$$

ARZ009-017-025-026-028-291700-
NORTHEAST ARKANSAS

CITY           SKY/WX    TMP DP  RH WIND       PRES   REMARKS
CORNING        FAIR      73  54  49 NE7       30.17S
JONESBORO      SUNNY     74  55  51 NE9G17    30.16S
NEWPORT        SUNNY     76  57  51 N8        30.18S
WALNUT RIDGE   SUNNY     73  54  49 NE8       30.17S
BLYTHEVILLE    PTSUNNY   75  57  53 VRB5      30.16R
NW BLYTHEVILLE MOSUNNY   73  54  49 NE6       30.16R
$$

ARZ022-023-033-042-044-291700-
CENTRAL ARKANSAS

CITY           SKY/WX    TMP DP  RH WIND       PRES   REMARKS
LITTLE ROCK    MOSUNNY   79  58  48 NE7       30.17R
N LITTLE ROCK  MOSUNNY   78  64  62 E5        30.17R
JACKSONVILLE   SUNNY     77  58  52 NE5       30.17R
SEARCY         SUNNY     77  58  51 N7        30.18R
HOT SPRINGS    SUNNY     77  63  61 E6        30.17S
RUSSELLVILLE   SUNNY     78  61  55 VRB7      30.18R
CLINTON        FAIR      77  59  53 E5        30.18S
$$

ARZ036-291700-
EAST ARKANSAS

CITY           SKY/WX    TMP DP  RH WIND       PRES   REMARKS
WEST MEMPHIS   SUNNY     76  55  48 NE12      30.14S
$$

ARZ050-053-066-070-073-291700-
SOUTHWEST ARKANSAS

CITY           SKY/WX    TMP DP  RH WIND       PRES   REMARKS
ARKADELPHIA    FAIR      81  68  64 VRB6      30.16S
CAMDEN         SUNNY     81  64  57 NE8       30.14S
TEXARKANA      SUNNY     80  66  62 NE6       30.14S
EL DORADO      SUNNY     81  68  64 N7        30.13S
DE QUEEN       SUNNY     81  65  58 E3        30.13S
$$

ARZ056-057-069-291700-
SOUTHEAST ARKANSAS

CITY           SKY/WX    TMP DP  RH WIND       PRES   REMARKS
PINE BLUFF     SUNNY     78  60  53 NE9       30.16R
STUTTGART      SUNNY     77  59  53 NE9       30.17R
MONTICELLO     SUNNY     80  63  55 NE13      30.13S

$$





USA.gov is the U.S. government's official web portal to all federal, state and local government web resources and services.